Showing default

GAOFEN 6, 43484

Orbit data source: Space-Track

GAOFEN 6, 43484 is a payload satellite owned by GGKGJ (CN) in SSO that was launched on Sat, 02 Jun 2018 UTC via a CHANG ZHENG 2D launch vehicle from the Jiuquan Satellite Launch Center, China (JSC). Payloads include a variety of satellites, spacecraft, and rockets equipped with specific instruments for various scientific and technological missions. These include communications satellites like Starlink; space stations such as the ISS; scientific satellites like the Hubble; Earth observation satellites from companies like Planet Labs, Umbra, and HawkEye 360; GPS; miniature CubeSats for education and research; and military/defense satellites.

Loading next visibility...
GAOFEN 6 details
Identifier
43484, 2018-048A
Orbit
SSO
Last TLE update10 hours ago
Origin
Flag of CNGGKGJ (CN / PRC)
ManufacturerDFH
MissionOperational Civil Imaging
Bus & MotorCAST-2000, AOCS
Mass1,064 kg wet, ~900 kg dry
Launch date (UTC)
2018-06-02 (7 years ago)
Launch vehicle
CHANG ZHENG 2D
Launch site
Jiuquan Satellite Launch Center, China (JSC)
Object type
Payload
Rocket body
Debris
Shape & HBRBox + 2 Pan, 4 m
Radar Cross Section4.991 m², Large (>1 m²)

Expand to show TLE details & history

TLE from 10 hours ago
0 GAOFEN 6
1 43484U 18048A   24348.74957797  .00001666  00000-0  24601-3 0  9995
2 43484  97.8469  58.2826 0013320 146.3479 213.8579 14.76494615352161
Epoch: 2024-12-13T17:59Z
Definitive object data (Epoch: 2024-12-13T17:59:23.536Z)
Latitude-0.00009°
Longitude65.52346°
Altitude651.198 km
Speed7.528 km/s
True Right ascension03h 53m 07s
True Declination0° 00' 00"
Sunlit
Object was in full shadow at TLE epoch
Visualization TLE readout
Latitude74.72323°
Longitude35.81024°
Altitude649.706 km
Speed7.541 km/s
Apparent Right ascension15h 04m 58s
Apparent Declination40° 56' 34"
Sunlit
Object is in full shadow
Visualization observer readout
Local Sidereal Time02:38:32
Azimuth354.951° N
Elevation-8.918°
Doppler factor1
Orbital elements
Apogee altitude646.799 km
Perigee altitude628.109 km
Semi-major axis7,015.591 km
Eccentricity0.001332
Inclination97.8469°
RAAN58.2826°
Arg. of periapsis146.3479°
True anomaly213.77298°
Mean anomaly213.8579°
Eccentric anomaly213.81543°
Mean motion3.69357 °/min
BSTAR0.00024601
Orbital period97.47 mins
Loading maneuver chart data...
Loading historical data...
Loading historical data...
Loading historical data...
Loading historical data...
Loading historical data...
Loading historical data...
Loading historical data...

GAOFEN 6 Visibility forecast

Observer location: undefined°, undefined

Span
Click to sort rows by Start time (UTC) header in descending order
Start Az.
Max El. time (UTC)
Max El. Az.
Max El.
End time (UTC)
End Az.
7 mins2024-12-14 05:29:42.735Z201.575° SSW2024-12-14 05:32:42.735Z251.727° W28.836°2024-12-14 05:36:42.735Z325.847° NNW
7 mins2024-12-14 17:20:42.735Z31.568° NE2024-12-14 17:23:42.735Z101.482° ESE36.057°2024-12-14 17:27:42.735Z172.982° S
|